Regional Weather Roundup
Issued by NWS

Home | Current Version | Previous Version | Graphics & Text | Print | Product List | Glossary On
Versions: 1 2 3 4 5 6 7 8 9 10 11 12 13 14 15 16 17 18 19 20 21 22 23 24 25 26 27 28 29 30 31 32 33 34 35 36 37 38 39 40 41 42 43 44 45 46 47 48 49 50
000
ASUS43 KBIS 042002
RWRND

NORTH DAKOTA REGIONAL WEATHER ROUNDUP
NATIONAL WEATHER SERVICE BISMARCK ND
200 PM CST SUN DEC 04 2016

NOTE: "FAIR" INDICATES FEW OR NO CLOUDS BELOW 12,000 FEET WITH NO
SIGNIFICANT WEATHER AND/OR OBSTRUCTIONS TO VISIBILITY.


NDZ001>003-009>011-017-042100-
NORTHWEST NORTH DAKOTA

CITY           SKY/WX    TMP DP  RH WIND       PRES   REMARKS
WILLISTON      SUNNY     31  22  69 SW6       29.66F
MINOT          SUNNY     29  22  75 W9        29.65F
MINOT AFB      SUNNY     26  22  83 NW6       29.65F WCI  19
$$

NDZ018>021-031>035-040>046-042100-
SOUTHWEST NORTH DAKOTA

CITY           SKY/WX    TMP DP  RH WIND       PRES   REMARKS
BISMARCK       SUNNY     32  22  66 W14       29.72F
DICKINSON      SUNNY     29  22  75 W10       29.65F WCI  20
GARRISON         N/A     29  23  78 W10       29.67F WCI  20
HETTINGER ARPT SUNNY     36  25  64 W10       29.71F
$$

NDZ004>008-012>016-024-026-027-054-042100-
NORTHEAST NORTH DAKOTA

CITY           SKY/WX    TMP DP  RH WIND       PRES   REMARKS
GRAND FORKS    CLOUDY    32  28  85 W14       29.64F
GRND FRKS AFB  FLURRIES  31  28  87 W13       29.64F
DEVILS LAKE    FLURRIES  28  26  92 W15       29.64F WCI  16
$$

NDZ022-023-025-028>030-036>039-047>053-042100-
SOUTHEAST NORTH DAKOTA

CITY           SKY/WX    TMP DP  RH WIND       PRES   REMARKS
FARGO          PTSUNNY   35  30  82 W9        29.68F
JAMESTOWN      CLOUDY    34  29  82 W13       29.67F
$$




USA.gov is the U.S. government's official web portal to all federal, state and local government web resources and services.